Printer-friendly version

IAU Minor Planet Center

Minor Planet Center

MPEC 2006-K23 : 2006 KD1

The following Minor Planet Electronic Circular may be linked-to from your own Web pages, but must not otherwise be redistributed electronically.


Read MPEC 2006-K22 Read MPEC 2006-K24


M.P.E.C. 2006-K23                                Issued 2006 May 22, 00:47 UT

     The Minor Planet Electronic Circulars contain information on unusual
         minor planets and routine data on comets.  They are published
   on behalf of Commission 20 of the International Astronomical Union by the
          Minor Planet Center, Smithsonian Astrophysical Observatory,
                          Cambridge, MA 02138, U.S.A.

                  Supported in part by the Brinson Foundation
                  Supported in part by the TABASGO Foundation
             Prepared using the Tamkin Foundation Computer Network

                              MPC@CFA.HARVARD.EDU
          URL http://cfa-www.harvard.edu/iau/mpc.html  ISSN 1523-6714

                                   2006 KD1

Observations:
     K06K01D* C2006 05 20.32319 19 51 27.95 +62 32 28.2          18.9   EK023704
     K06K01D  C2006 05 20.33463 19 51 22.35 +62 32 15.3          18.8   EK023704
     K06K01D  C2006 05 20.34619 19 51 16.69 +62 32 02.2          19.0   EK023704
     K06K01D  C2006 05 21.36671 19 43 12.37 +62 10 36.7          18.0   EK023704
     K06K01D  C2006 05 21.36687 19 43 12.33 +62 10 35.7          18.4   EK023704
     K06K01D  C2006 05 21.37819 19 43 06.94 +62 10 21.6          19.2   EK023704
     K06K01D  C2006 05 21.37826 19 43 06.97 +62 10 21.7          18.7   EK023704
     K06K01D  C2006 05 21.38945 19 43 01.46 +62 10 09.0          19.6   EK023704
     K06K01D  C2006 05 21.38961 19 43 01.59 +62 10 07.5          19.1   EK023704
     K06K01D  C2006 05 21.38969 19 43 01.52 +62 10 06.6          18.9   EK023704
     K06K01D  C2006 05 21.40150 19 42 55.86 +62 09 51.9          18.3   EK023704
     K06K01D  C2006 05 21.40166 19 42 55.84 +62 09 52.0          19.1   EK023704
     K06K01D  C2006 05 21.40174 19 42 55.90 +62 09 51.5          19.1   EK023704
     K06K01D  C2006 05 21.41388 19 42 50.05 +62 09 36.6          18.0   EK023704
     K06K01D  C2006 05 21.41404 19 42 49.90 +62 09 37.2          18.6   EK023704
     K06K01D  C2006 05 21.99035 19 38 26.69 +61 56 42.7          18.7 V EK023198
     K06K01D  C2006 05 21.99106 19 38 26.37 +61 56 41.8          18.6 V EK023198
     K06K01D  C2006 05 21.99142 19 38 26.20 +61 56 41.3          18.6 V EK023198
     K06K01D  C2006 05 21.99214 19 38 25.88 +61 56 40.3          18.6 V EK023198
     K06K01D  C2006 05 21.99357 19 38 25.23 +61 56 38.4          18.5 V EK023198

Observer details:
198 Wildberg.  Observer R. Apitzsch.  0.35-m f/4.2 reflector + CCD.
704 Lincoln Laboratory ETS, New Mexico.  Observers M. Bezpalko, L. Manguso,
    D. Torres, R. Kracke, M. Blythe, H. Love, G. Spitz.  Measurers J. Stuart,
    J. Kommers.  1.0-m f/2.15 reflector + CCD.

Orbital elements:
2006 KD1                                                 Earth MOID = 0.4047 AU
Epoch 2006 Mar. 6.0 TT = JDT 2453800.5                  MPC
M 353.90466              (2000.0)            P               Q
n   0.28048619     Peri.  337.81091     -0.84748279     -0.52224771
a   2.3113288      Node   169.09880     +0.53032069     -0.84078850
e   0.7658462      Incl.   30.16443     +0.02308422     +0.14259040
P   3.51           H   17.0           G   0.15           U   9
Residuals in seconds of arc
060520 704  0.5-  0.5-    060521 704  1.4-  1.3+    060521 704  0.6-  1.0+
060520 704  0.3-  0.1-    060521 704  0.1+  0.0     060521 198  0.3-  0.1-
060520 704  0.0   0.3+    060521 704  0.1-  0.8-    060521 198  0.3-  0.1-
060521 704  0.5-  0.1+    060521 704  0.5-  0.4-    060521 198  0.3-  0.1-
060521 704  0.3-  0.7-    060521 704  0.1-  0.1-    060521 198  0.2-  0.2-
060521 704  0.4-  0.5-    060521 704  0.6+  0.5-    060521 198  0.2-  0.2-
060521 704  0.0   0.3-    060521 704  0.0   0.2+

Ephemeris:
2006 KD1                 a,e,i = 2.31, 0.77, 30                  q = 0.5412
Date    TT    R. A. (2000) Decl.     Delta      r     Elong.  Phase     V
2006 05 15    20 39.33   +63 55.7    0.523    1.039    78.2    72.2    18.2
2006 05 25    19 17.11   +60 43.4    0.592    1.171    89.8    59.8    18.3
2006 06 04    18 23.08   +55 41.2    0.666    1.300    99.3    50.4    18.6
2006 06 14    17 48.21   +49 46.4    0.747    1.424   106.9    43.0    18.8
2006 06 24    17 26.18   +43 31.3    0.838    1.544   112.3    37.5    19.1
2006 07 04    17 13.13   +37 17.8    0.943    1.658   115.5    33.6    19.4
2006 07 14    17 06.54   +31 22.9    1.063    1.768   116.4    31.0    19.7
2006 07 24    17 04.66   +25 56.4    1.199    1.874   115.3    29.3    20.0
2006 08 03    17 06.31   +21 02.8    1.349    1.975   112.6    28.3    20.4
2006 08 13    17 10.66   +16 43.4    1.512    2.073   108.7    27.6    20.7
2006 08 23    17 17.07   +12 56.7    1.687    2.167   104.0    26.9    21.0
2006 09 02    17 25.13   +09 40.3    1.871    2.257    98.8    26.2    21.3
2006 09 12    17 34.47   +06 51.5    2.062    2.344    93.2    25.4    21.6
2006 09 22    17 44.84   +04 27.6    2.258    2.428    87.3    24.4    21.8
2006 10 02    17 56.04   +02 26.1    2.457    2.509    81.3    23.2    22.0

Gareth V. Williams           (C) Copyright 2006 MPC           M.P.E.C. 2006-K23

Read MPEC 2006-K22 Read MPEC 2006-K24


Our Web policy. Index to the CBAT/MPC/ICQ pages.


Valid HTML 4.01!